ITY3131 LEST-LEPA

Flight info

Callsign ITY3131
Flight time N/A
Altitude 39000
Route FORNO DCT DESAT DCT ZMR DCT PDT DCT AKOKI/N0476F400 M871 LASPO DCT ORVUS M871 GODOX
Aircraft A359/H-SDE2E3GHIJ3J4J5LM1ORWXY/LB1D1

Departure

Time 2026-04-22 14:18
Airport Santiago-Rosalía de Castro Airport (LEST)

Arrival

Time N/A
Airport Palma de Mallorca Airport (LEPA)
Time Latitude Longitude Altitude Speed Heading
2026-04-22 13:58 42.89267 -8.41824 1220 ft 0 kts 287°
2026-04-22 14:08 42.89269 -8.41829 1220 ft 3 kts 301°
2026-04-22 14:08 42.89258 -8.41810 1220 ft 3 kts 297°
2026-04-22 14:09 42.89254 -8.41786 1220 ft 3 kts 260°
2026-04-22 14:09 42.89258 -8.41760 1220 ft 2 kts 258°
2026-04-22 14:09 42.89263 -8.41738 1220 ft 3 kts 224°
2026-04-22 14:09 42.89277 -8.41728 1220 ft 3 kts 174°
2026-04-22 14:10 42.89296 -8.41733 1220 ft 2 kts 165°
2026-04-22 14:10 42.89303 -8.41736 1220 ft 0 kts 166°
2026-04-22 14:12 42.89303 -8.41735 1220 ft 0 kts 166°
2026-04-22 14:12 42.89286 -8.41730 1220 ft 6 kts 167°
2026-04-22 14:12 42.89227 -8.41711 1221 ft 11 kts 166°
2026-04-22 14:13 42.89147 -8.41684 1221 ft 2 kts 166°
2026-04-22 14:13 42.89121 -8.41675 1222 ft 7 kts 164°
2026-04-22 14:13 42.89094 -8.41609 1222 ft 11 kts 104°
2026-04-22 14:13 42.89019 -8.41541 1222 ft 16 kts 166°
2026-04-22 14:14 42.88890 -8.41497 1223 ft 22 kts 166°
2026-04-22 14:14 42.88727 -8.41443 1225 ft 25 kts 166°
2026-04-22 14:14 42.88561 -8.41388 1226 ft 26 kts 166°
2026-04-22 14:14 42.88501 -8.41368 1227 ft 3 kts 166°
2026-04-22 14:15 42.88441 -8.41346 1228 ft 10 kts 165°
2026-04-22 14:15 42.88434 -8.41344 1228 ft 0 kts 165°
2026-04-22 14:15 42.88433 -8.41343 1228 ft 1 kts 165°
2026-04-22 14:15 42.88399 -8.41325 1228 ft 10 kts 150°
2026-04-22 14:16 42.88374 -8.41210 1229 ft 17 kts 81°
2026-04-22 14:16 42.88450 -8.41118 1231 ft 12 kts 352°
2026-04-22 14:16 42.88460 -8.41121 1231 ft 0 kts 347°
2026-04-22 14:17 42.88477 -8.41126 1231 ft 16 kts 347°
2026-04-22 14:17 42.88830 -8.41246 1225 ft 86 kts 346°
2026-04-22 14:18 42.89611 -8.41510 1216 ft 144 kts 346°
2026-04-22 14:18 42.90728 -8.41874 1434 ft 170 kts 345°
2026-04-22 14:18 42.91879 -8.42186 2009 ft 176 kts 346°
2026-04-22 14:18 42.93109 -8.42556 2482 ft 187 kts 342°
2026-04-22 14:19 42.94431 -8.43058 2679 ft 205 kts 339°
2026-04-22 14:19 42.95855 -8.43637 2949 ft 222 kts 340°
2026-04-22 14:19 42.97443 -8.44063 3240 ft 244 kts 355°
2026-04-22 14:19 42.99135 -8.43471 3484 ft 267 kts 33°
2026-04-22 14:20 43.00569 -8.39074 4730 ft 261 kts 105°
2026-04-22 14:20 42.99762 -8.36964 5383 ft 256 kts 137°
2026-04-22 14:20 42.98215 -8.35873 5973 ft 253 kts 172°
2026-04-22 14:21 42.94645 -8.35672 7185 ft 258 kts 178°
2026-04-22 14:21 42.92824 -8.35474 7677 ft 265 kts 175°
2026-04-22 14:22 42.89258 -8.34365 8900 ft 272 kts 152°
2026-04-22 14:22 42.87824 -8.32580 9358 ft 286 kts 129°
2026-04-22 14:22 42.85600 -8.27984 10344 ft 300 kts 126°
2026-04-22 14:23 42.84438 -8.25529 10608 ft 314 kts 126°
2026-04-22 14:23 42.83215 -8.22966 10870 ft 328 kts 126°
2026-04-22 14:23 42.81944 -8.20310 11122 ft 340 kts 126°
2026-04-22 14:23 42.80643 -8.17594 11320 ft 352 kts 126°
2026-04-22 14:24 42.79278 -8.14756 11544 ft 363 kts 126°
2026-04-22 14:24 42.77879 -8.11854 11891 ft 369 kts 126°
2026-04-22 14:24 42.76462 -8.08915 12324 ft 371 kts 126°
2026-04-22 14:24 42.75040 -8.05972 12788 ft 373 kts 126°
2026-04-22 14:25 42.73603 -8.03002 13227 ft 375 kts 126°
2026-04-22 14:25 42.72175 -8.00057 13645 ft 378 kts 126°
2026-04-22 14:25 42.70723 -7.97062 14056 ft 380 kts 126°
2026-04-22 14:25 42.69259 -7.94041 14458 ft 382 kts 126°
2026-04-22 14:26 42.67789 -7.91014 14832 ft 385 kts 126°
2026-04-22 14:26 42.66302 -7.87956 15270 ft 387 kts 126°
2026-04-22 14:26 42.64830 -7.84931 15658 ft 389 kts 126°
2026-04-22 14:26 42.63328 -7.81847 16068 ft 392 kts 127°
2026-04-22 14:27 42.61812 -7.78740 16454 ft 394 kts 127°
2026-04-22 14:27 42.60287 -7.75619 16857 ft 397 kts 127°
2026-04-22 14:27 42.58755 -7.72487 17264 ft 399 kts 127°
2026-04-22 14:27 42.57234 -7.69377 17655 ft 401 kts 127°
2026-04-22 14:28 42.55680 -7.66205 18050 ft 404 kts 127°
2026-04-22 14:28 42.54116 -7.63015 18404 ft 407 kts 127°
2026-04-22 14:28 42.52542 -7.59808 18722 ft 409 kts 127°
2026-04-22 14:28 42.50956 -7.56580 19008 ft 412 kts 127°
2026-04-22 14:29 42.49378 -7.53373 19329 ft 415 kts 127°
2026-04-22 14:29 42.47771 -7.50110 19629 ft 417 kts 127°
2026-04-22 14:29 42.46153 -7.46827 19920 ft 419 kts 127°
2026-04-22 14:29 42.44522 -7.43524 20226 ft 422 kts 127°
2026-04-22 14:30 42.42880 -7.40206 20515 ft 424 kts 128°
2026-04-22 14:30 42.41244 -7.36904 20798 ft 427 kts 128°
2026-04-22 14:30 42.39582 -7.33553 21095 ft 429 kts 128°
2026-04-22 14:30 42.37928 -7.30221 21373 ft 431 kts 128°
2026-04-22 14:31 42.36236 -7.26817 21580 ft 436 kts 128°
2026-04-22 14:31 42.34536 -7.23401 21853 ft 438 kts 128°
2026-04-22 14:31 42.32830 -7.19975 22142 ft 440 kts 128°
2026-04-22 14:31 42.31132 -7.16570 22354 ft 443 kts 128°
2026-04-22 14:32 42.29401 -7.13106 22642 ft 445 kts 128°
2026-04-22 14:32 42.27665 -7.09633 22922 ft 447 kts 128°
2026-04-22 14:32 42.25912 -7.06134 23188 ft 449 kts 128°
2026-04-22 14:32 42.24749 -7.03814 23354 ft 451 kts 128°
2026-04-22 14:33 42.22401 -6.99135 23670 ft 454 kts 128°
2026-04-22 14:33 42.20625 -6.95596 23903 ft 455 kts 128°
2026-04-22 14:33 42.19442 -6.93241 24064 ft 456 kts 128°
2026-04-22 14:33 42.17060 -6.88509 24327 ft 460 kts 128°
2026-04-22 14:34 42.15846 -6.86097 24513 ft 460 kts 128°
2026-04-22 14:34 42.14060 -6.82555 24767 ft 461 kts 128°
2026-04-22 14:34 42.12257 -6.78981 25025 ft 461 kts 128°
2026-04-22 14:34 42.10444 -6.75392 25247 ft 463 kts 128°
2026-04-22 14:35 42.08622 -6.71791 25494 ft 464 kts 128°
2026-04-22 14:35 42.06821 -6.68237 25723 ft 466 kts 128°
2026-04-22 14:35 42.04989 -6.64627 25965 ft 467 kts 128°
2026-04-22 14:35 42.03153 -6.61014 26200 ft 468 kts 128°
2026-04-22 14:36 42.01309 -6.57390 26453 ft 469 kts 128°
2026-04-22 14:36 41.99452 -6.53748 26664 ft 472 kts 128°
2026-04-22 14:36 41.97591 -6.50097 26901 ft 474 kts 128°
2026-04-22 14:36 41.95749 -6.46488 27164 ft 475 kts 128°
2026-04-22 14:37 41.93877 -6.42823 27497 ft 475 kts 128°
2026-04-22 14:37 41.91998 -6.39152 27781 ft 476 kts 128°
2026-04-22 14:37 41.90113 -6.35471 28047 ft 478 kts 128°
2026-04-22 14:37 41.88221 -6.31780 28325 ft 480 kts 128°
2026-04-22 14:38 41.86347 -6.28130 28607 ft 482 kts 128°
2026-04-22 14:38 41.84433 -6.24407 28886 ft 484 kts 128°
2026-04-22 14:38 41.82518 -6.20686 29129 ft 486 kts 128°
2026-04-22 14:38 41.80594 -6.16945 29347 ft 489 kts 128°
2026-04-22 14:39 41.78650 -6.13180 29592 ft 491 kts 128°
2026-04-22 14:39 41.76721 -6.09451 29857 ft 492 kts 128°
2026-04-22 14:39 41.74759 -6.05664 30144 ft 494 kts 128°
2026-04-22 14:40 41.70822 -5.98076 30618 ft 497 kts 128°
2026-04-22 14:40 41.68837 -5.94257 30843 ft 499 kts 128°
2026-04-22 14:40 41.66875 -5.90486 31085 ft 500 kts 128°
2026-04-22 14:40 41.64883 -5.86660 31317 ft 502 kts 128°
2026-04-22 14:41 41.62879 -5.82817 31531 ft 503 kts 128°
2026-04-22 14:41 41.60865 -5.78958 31724 ft 505 kts 128°
2026-04-22 14:41 41.58846 -5.75096 32028 ft 505 kts 128°
2026-04-22 14:41 41.56860 -5.71299 32379 ft 503 kts 128°
2026-04-22 14:42 41.54847 -5.67459 32666 ft 503 kts 128°
2026-04-22 14:42 41.52841 -5.63634 32961 ft 502 kts 128°
2026-04-22 14:42 41.50828 -5.59823 33293 ft 501 kts 128°
2026-04-22 14:42 41.48796 -5.56038 33604 ft 500 kts 128°
2026-04-22 14:43 41.46757 -5.52271 33916 ft 500 kts 129°
2026-04-22 14:43 41.44742 -5.48558 34188 ft 499 kts 129°
2026-04-22 14:43 41.42699 -5.44793 34429 ft 499 kts 128°
2026-04-22 14:43 41.40666 -5.41045 34674 ft 499 kts 128°
2026-04-22 14:44 41.38626 -5.37284 34919 ft 499 kts 128°
2026-04-22 14:44 41.36609 -5.33563 35145 ft 499 kts 128°
2026-04-22 14:44 41.34567 -5.29800 35347 ft 500 kts 128°
2026-04-22 14:44 41.32530 -5.26050 35581 ft 500 kts 128°
2026-04-22 14:45 41.30520 -5.22353 35831 ft 499 kts 128°
2026-04-22 14:45 41.28477 -5.18600 36093 ft 499 kts 128°
2026-04-22 14:45 41.26436 -5.14855 36347 ft 499 kts 128°
2026-04-22 14:45 41.24393 -5.11114 36585 ft 499 kts 128°
2026-04-22 14:46 41.22356 -5.07387 36799 ft 499 kts 128°
2026-04-22 14:46 41.20316 -5.03659 37018 ft 499 kts 128°
2026-04-22 14:46 41.18275 -4.99933 37244 ft 498 kts 128°
2026-04-22 14:46 41.16249 -4.96240 37465 ft 498 kts 128°
2026-04-22 14:47 41.14202 -4.92513 37635 ft 499 kts 128°
2026-04-22 14:47 41.12155 -4.88791 37830 ft 499 kts 128°
2026-04-22 14:47 41.10132 -4.85115 38024 ft 498 kts 128°
2026-04-22 14:47 41.08089 -4.81408 38238 ft 498 kts 128°
2026-04-22 14:48 41.06043 -4.77701 38426 ft 498 kts 128°
2026-04-22 14:48 41.03992 -4.73990 38628 ft 498 kts 128°
2026-04-22 14:48 41.01945 -4.70288 38780 ft 497 kts 128°
2026-04-22 14:48 40.99898 -4.66594 38941 ft 497 kts 128°
2026-04-22 14:49 40.95808 -4.59223 38996 ft 499 kts 128°
2026-04-22 14:49 40.91690 -4.51818 39000 ft 499 kts 128°
2026-04-22 14:50 40.87556 -4.44404 38999 ft 500 kts 128°
2026-04-22 14:50 40.83445 -4.37046 39006 ft 500 kts 128°
2026-04-22 14:51 40.79323 -4.29687 39007 ft 499 kts 128°
2026-04-22 14:51 40.75188 -4.22324 39013 ft 499 kts 128°
2026-04-22 14:52 40.71034 -4.14944 39025 ft 499 kts 128°
2026-04-22 14:52 40.66915 -4.07641 39043 ft 499 kts 128°
2026-04-22 14:53 40.62759 -4.00291 39050 ft 499 kts 128°
2026-04-22 14:53 40.58610 -3.92972 39052 ft 499 kts 128°
2026-04-22 14:54 40.54447 -3.85645 39055 ft 499 kts 128°
2026-04-22 14:54 40.50306 -3.78376 39048 ft 499 kts 128°
2026-04-22 14:55 40.46128 -3.71056 39015 ft 500 kts 128°
2026-04-22 14:55 40.41948 -3.63751 39021 ft 500 kts 128°
2026-04-22 14:56 40.37786 -3.56493 39020 ft 500 kts 128°
2026-04-22 14:56 40.33588 -3.49192 39016 ft 500 kts 128°
2026-04-22 14:57 40.29415 -3.41950 39012 ft 500 kts 128°
2026-04-22 14:57 40.25590 -3.34307 39007 ft 501 kts 116°
2026-04-22 14:58 40.23239 -3.25759 39002 ft 501 kts 107°
2026-04-22 14:58 40.21303 -3.17024 39000 ft 502 kts 105°
2026-04-22 14:59 40.19406 -3.08223 38999 ft 502 kts 106°
2026-04-22 14:59 40.17478 -2.99439 39001 ft 501 kts 105°
2026-04-22 15:00 40.15531 -2.90695 39001 ft 501 kts 106°
2026-04-22 15:00 40.13579 -2.81984 39004 ft 501 kts 106°
2026-04-22 15:01 40.11615 -2.73255 39005 ft 501 kts 106°
2026-04-22 15:01 40.09650 -2.64551 39005 ft 501 kts 105°
2026-04-22 15:02 40.07671 -2.55819 39010 ft 500 kts 106°
2026-04-22 15:02 40.05695 -2.47132 39008 ft 500 kts 106°
2026-04-22 15:03 40.03706 -2.38418 39009 ft 500 kts 106°
2026-04-22 15:03 40.01708 -2.29705 39008 ft 500 kts 106°
2026-04-22 15:04 39.99712 -2.21031 39015 ft 500 kts 105°
2026-04-22 15:04 39.97719 -2.12387 39020 ft 500 kts 105°
2026-04-22 15:05 39.95694 -2.03664 39016 ft 500 kts 105°
2026-04-22 15:05 39.93682 -1.95037 39019 ft 500 kts 106°
2026-04-22 15:06 39.91648 -1.86347 39018 ft 499 kts 105°
2026-04-22 15:06 39.89629 -1.77742 39017 ft 499 kts 105°
2026-04-22 15:07 39.87587 -1.69074 39018 ft 499 kts 105°
2026-04-22 15:07 39.85554 -1.60474 39013 ft 499 kts 105°
2026-04-22 15:08 39.83505 -1.51841 38984 ft 499 kts 105°
2026-04-22 15:08 39.81441 -1.43173 38972 ft 500 kts 105°
2026-04-22 15:09 39.78886 -1.34801 38948 ft 501 kts 118°
2026-04-22 15:09 39.74579 -1.27773 38941 ft 502 kts 139°
2026-04-22 15:10 39.68709 -1.22927 38939 ft 501 kts 154°
2026-04-22 15:10 39.62359 -1.19153 38942 ft 501 kts 157°
2026-04-22 15:11 39.56384 -1.14599 38941 ft 502 kts 140°
2026-04-22 15:11 39.51788 -1.07822 38959 ft 502 kts 121°
2026-04-22 15:12 39.48234 -1.00041 38956 ft 503 kts 118°
2026-04-22 15:12 39.44822 -0.92099 38962 ft 503 kts 118°
2026-04-22 15:13 39.41421 -0.84208 38948 ft 504 kts 118°
2026-04-22 15:13 39.37964 -0.76300 38952 ft 504 kts 118°
2026-04-22 15:14 39.34489 -0.68466 38940 ft 505 kts 119°
2026-04-22 15:14 39.31034 -0.60547 38939 ft 505 kts 115°
2026-04-22 15:15 39.28910 -0.52006 38935 ft 500 kts 96°
2026-04-22 15:15 39.28781 -0.43075 38942 ft 496 kts 84°
2026-04-22 15:16 39.29247 -0.34169 38938 ft 496 kts 83°
2026-04-22 15:16 39.29774 -0.25327 38940 ft 496 kts 83°
2026-04-22 15:17 39.30266 -0.16418 38945 ft 496 kts 83°
2026-04-22 15:17 39.30726 -0.07494 38949 ft 497 kts 84°
2026-04-22 15:18 39.31168 0.01367 38961 ft 497 kts 84°
2026-04-22 15:18 39.31607 0.10309 38949 ft 499 kts 84°
2026-04-22 15:19 39.32040 0.19227 38953 ft 499 kts 84°
2026-04-22 15:19 39.32468 0.28188 38952 ft 499 kts 84°
2026-04-22 15:20 39.32818 0.35629 38961 ft 499 kts 84°
2026-04-22 15:20 39.33236 0.44605 38960 ft 500 kts 84°
2026-04-22 15:21 39.33643 0.53542 38963 ft 501 kts 84°
2026-04-22 15:21 39.34044 0.62545 38966 ft 502 kts 84°
2026-04-22 15:22 39.34441 0.71571 38970 ft 502 kts 84°
2026-04-22 15:22 39.34828 0.80532 38975 ft 502 kts 85°
2026-04-22 15:23 39.35212 0.89578 38974 ft 502 kts 85°
2026-04-22 15:23 39.35588 0.98603 38980 ft 502 kts 85°
2026-04-22 15:24 39.35955 1.07573 38979 ft 502 kts 85°
2026-04-22 15:24 39.36318 1.16616 38984 ft 502 kts 85°
2026-04-22 15:25 39.36671 1.25589 38980 ft 501 kts 85°
2026-04-22 15:25 39.37019 1.34601 38979 ft 501 kts 85°
2026-04-22 15:26 39.37581 1.43513 38970 ft 498 kts 79°